• In Uzbekistan
  • List of Countries
  • For 7 days
  • Water Temperature
  • Satellite Maps
  • Weather Map
  • Weather Widgets
  • user-avatar
    Login

    Hourly Weather Suhar

    Today, 23 April, Tuesday

    Time Temperature Precipitation Wind Pressure Humidity
    00:00 +35°C° 0 mm 1 mps 755 mmHg 34%
    01:00 +34°C° 0 mm 1 mps 755 mmHg 36%
    02:00 +34°C° 0 mm 1 mps 755 mmHg 36%
    03:00 +33°C° 0 mm 1 mps 755 mmHg 35%
    04:00 +33°C° 0 mm 1 mps 754 mmHg 33%
    05:00 +34°C° 0 mm 1 mps 755 mmHg 31%
    06:00 +35°C° 0 mm 1 mps 755 mmHg 29%
    07:00 +36°C° 0 mm 1 mps 756 mmHg 27%
    08:00 +37°C° 0 mm 1 mps 756 mmHg 25%
    09:00 +39°C° 0 mm 1 mps 756 mmHg 24%
    10:00 +40°C° 0 mm 2 mps 756 mmHg 23%
    11:00 +42°C° 0 mm 3 mps 756 mmHg 22%
    12:00 +42°C° 0 mm 4 mps 756 mmHg 22%
    13:00 +43°C° 0 mm 5 mps 756 mmHg 21%
    14:00 +42°C° 0 mm 5 mps 756 mmHg 23%
    15:00 +42°C° 0 mm 5 mps 756 mmHg 25%
    16:00 +41°C° 0 mm 6 mps 756 mmHg 28%
    17:00 +40°C° 0 mm 5 mps 756 mmHg 29%
    18:00 +40°C° 0 mm 5 mps 757 mmHg 30%
    19:00 +38°C° 0 mm 4 mps 757 mmHg 31%
    20:00 +37°C° 0 mm 3 mps 757 mmHg 32%
    21:00 +36°C° 0 mm 3 mps 757 mmHg 33%
    22:00 +36°C° 0 mm 2 mps 758 mmHg 34%
    23:00 +35°C° 0 mm 2 mps 758 mmHg 33%

    Tomorrow, 24 April, Wednesday

    Time Temperature Precipitation Wind Pressure Humidity
    00:00 +35°C° 0 mm 3 mps 757 mmHg 33%
    01:00 +34°C° 0 mm 3 mps 757 mmHg 32%
    02:00 +34°C° 0 mm 4 mps 757 mmHg 32%
    03:00 +33°C° 0 mm 4 mps 757 mmHg 32%
    04:00 +32°C° 0 mm 4 mps 757 mmHg 31%
    05:00 +32°C° 0 mm 5 mps 757 mmHg 31%
    06:00 +32°C° 0 mm 5 mps 758 mmHg 31%
    07:00 +30°C° 0 mm 5 mps 758 mmHg 31%
    08:00 +33°C° 0 mm 5 mps 758 mmHg 26%
    09:00 +35°C° 0 mm 5 mps 758 mmHg 22%
    10:00 +36°C° 0 mm 4 mps 759 mmHg 17%
    11:00 +37°C° 0 mm 5 mps 758 mmHg 17%
    12:00 +39°C° 0 mm 5 mps 758 mmHg 16%
    13:00 +40°C° 0 mm 6 mps 758 mmHg 15%
    14:00 +40°C° 0 mm 6 mps 757 mmHg 15%
    15:00 +41°C° 0 mm 6 mps 757 mmHg 14%
    16:00 +41°C° 0 mm 6 mps 757 mmHg 14%
    17:00 +39°C° 0 mm 6 mps 757 mmHg 16%
    18:00 +38°C° 0 mm 6 mps 757 mmHg 18%
    19:00 +36°C° 0 mm 6 mps 757 mmHg 20%
    20:00 +35°C° 0 mm 6 mps 758 mmHg 22%
    21:00 +33°C° 0 mm 6 mps 758 mmHg 25%
    22:00 +32°C° 0 mm 6 mps 758 mmHg 28%
    23:00 +32°C° 0 mm 6 mps 758 mmHg 29%

    Day after tomorrow, 25 April, Thursday

    Time Temperature Precipitation Wind Pressure Humidity
    00:00 +30°C° 0 mm 5 mps 758 mmHg 31%
    01:00 +29°C° 0 mm 5 mps 758 mmHg 33%
    02:00 +28°C° 0 mm 5 mps 758 mmHg 35%
    03:00 +28°C° 0 mm 5 mps 758 mmHg 36%
    04:00 +27°C° 0 mm 5 mps 757 mmHg 38%
    05:00 +27°C° 0 mm 5 mps 758 mmHg 37%
    06:00 +27°C° 0 mm 4 mps 758 mmHg 36%
    07:00 +28°C° 0 mm 4 mps 759 mmHg 35%
    08:00 +29°C° 0 mm 4 mps 759 mmHg 31%
    09:00 +32°C° 0 mm 4 mps 759 mmHg 26%
    10:00 +34°C° 0 mm 4 mps 759 mmHg 21%
    11:00 +34°C° 0 mm 4 mps 759 mmHg 21%
    12:00 +35°C° 0 mm 5 mps 759 mmHg 21%
    13:00 +36°C° 0 mm 6 mps 759 mmHg 20%
    14:00 +36°C° 0 mm 6 mps 758 mmHg 22%
    15:00 +36°C° 0 mm 6 mps 758 mmHg 23%
    16:00 +36°C° 0 mm 6 mps 757 mmHg 25%
    17:00 +35°C° 0 mm 5 mps 757 mmHg 28%
    18:00 +34°C° 0 mm 4 mps 757 mmHg 32%
    19:00 +33°C° 0 mm 3 mps 757 mmHg 35%
    20:00 +33°C° 0 mm 3 mps 758 mmHg 36%
    21:00 +31°C° 0 mm 3 mps 758 mmHg 37%
    22:00 +31°C° 0 mm 3 mps 759 mmHg 38%
    23:00 +30°C° 0 mm 3 mps 758 mmHg 39%

    26 April, Friday

    Time Temperature Precipitation Wind Pressure Humidity
    00:00 +30°C° 0 mm 3 mps 758 mmHg 40%
    01:00 +29°C° 0 mm 3 mps 757 mmHg 41%
    02:00 +28°C° 0 mm 3 mps 757 mmHg 41%
    03:00 +28°C° 0 mm 3 mps 757 mmHg 41%
    04:00 +27°C° 0 mm 3 mps 757 mmHg 41%
    05:00 +27°C° 0 mm 3 mps 757 mmHg 39%
    06:00 +28°C° 0 mm 3 mps 757 mmHg 38%
    07:00 +28°C° 0 mm 3 mps 758 mmHg 36%
    08:00 +29°C° 0 mm 2 mps 758 mmHg 32%
    09:00 +31°C° 0 mm 2 mps 758 mmHg 27%
    10:00 +32°C° 0 mm 2 mps 759 mmHg 23%
    11:00 +34°C° 0 mm 3 mps 758 mmHg 22%
    12:00 +35°C° 0 mm 4 mps 758 mmHg 21%
    13:00 +36°C° 0 mm 5 mps 757 mmHg 20%
    14:00 +36°C° 0 mm 5 mps 757 mmHg 21%
    15:00 +36°C° 0 mm 5 mps 756 mmHg 23%
    16:00 +36°C° 0 mm 5 mps 756 mmHg 24%
    17:00 +35°C° 0 mm 4 mps 756 mmHg 27%
    18:00 +34°C° 0 mm 3 mps 757 mmHg 29%
    19:00 +32°C° 0 mm 2 mps 757 mmHg 32%
    20:00 +32°C° 0 mm 2 mps 757 mmHg 33%
    21:00 +32°C° 0 mm 2 mps 758 mmHg 34%
    22:00 +31°C° 0 mm 1 mps 758 mmHg 36%
    23:00 +31°C° 0 mm 1 mps 758 mmHg 36%

    27 April, Saturday

    Time Temperature Precipitation Wind Pressure Humidity
    00:00 +30°C° 0 mm 1 mps 758 mmHg 37%
    01:00 +29°C° 0 mm 1 mps 757 mmHg 37%
    02:00 +29°C° 0 mm 1 mps 757 mmHg 38%
    03:00 +28°C° 0 mm 2 mps 757 mmHg 39%
    04:00 +28°C° 0 mm 2 mps 757 mmHg 40%
    05:00 +28°C° 0 mm 2 mps 757 mmHg 38%
    06:00 +29°C° 0 mm 2 mps 758 mmHg 36%
    07:00 +30°C° 0 mm 2 mps 758 mmHg 33%
    08:00 +31°C° 0 mm 2 mps 758 mmHg 29%
    09:00 +34°C° 0 mm 2 mps 759 mmHg 25%
    10:00 +35°C° 0 mm 2 mps 759 mmHg 21%
    11:00 +36°C° 0 mm 3 mps 758 mmHg 21%
    12:00 +37°C° 0 mm 4 mps 758 mmHg 20%
    13:00 +39°C° 0 mm 5 mps 757 mmHg 20%
    14:00 +37°C° 0 mm 5 mps 757 mmHg 22%
    15:00 +37°C° 0 mm 5 mps 757 mmHg 24%
    16:00 +37°C° 0 mm 5 mps 756 mmHg 25%
    17:00 +36°C° 0 mm 4 mps 756 mmHg 28%
    18:00 +35°C° 0 mm 3 mps 757 mmHg 30%
    19:00 +34°C° 0 mm 2 mps 757 mmHg 33%
    20:00 +34°C° 0 mm 2 mps 757 mmHg 33%
    21:00 +33°C° 0 mm 1 mps 757 mmHg 34%
    22:00 +33°C° 0 mm 1 mps 758 mmHg 34%
    23:00 +32°C° 0 mm 1 mps 757 mmHg 34%

    28 April, Sunday

    Time Temperature Precipitation Wind Pressure Humidity
    00:00 +32°C° 0 mm 1 mps 757 mmHg 33%
    01:00 +31°C° 0 mm 1 mps 757 mmHg 33%
    02:00 +31°C° 0 mm 1 mps 757 mmHg 33%
    03:00 +31°C° 0 mm 2 mps 756 mmHg 32%
    04:00 +31°C° 0 mm 3 mps 756 mmHg 31%
    05:00 +31°C° 0 mm 3 mps 757 mmHg 31%
    06:00 +31°C° 0 mm 3 mps 757 mmHg 30%
    07:00 +32°C° 0 mm 2 mps 757 mmHg 30%
    08:00 +34°C° 0 mm 2 mps 758 mmHg 27%
    09:00 +35°C° 0 mm 2 mps 758 mmHg 25%
    10:00 +36°C° 0 mm 3 mps 758 mmHg 23%
    11:00 +37°C° 0 mm 3 mps 757 mmHg 23%
    12:00 +38°C° 0 mm 4 mps 757 mmHg 22%
    13:00 +40°C° 0 mm 5 mps 756 mmHg 21%
    14:00 +40°C° 0 mm 5 mps 756 mmHg 21%
    15:00 +40°C° 0 mm 5 mps 756 mmHg 21%
    16:00 +40°C° 0 mm 5 mps 755 mmHg 20%
    17:00 +39°C° 0 mm 5 mps 756 mmHg 22%
    18:00 +37°C° 0 mm 4 mps 756 mmHg 25%
    19:00 +36°C° 0 mm 4 mps 757 mmHg 27%
    20:00 +36°C° 0 mm 3 mps 757 mmHg 27%
    21:00 +35°C° 0 mm 2 mps 757 mmHg 26%
    22:00 +35°C° 0 mm 2 mps 758 mmHg 26%
    23:00 +35°C° 0 mm 2 mps 757 mmHg 26%
    Show more